EST,Max TemperatureF,Mean TemperatureF,Min TemperatureF,Max Dew PointF,MeanDew PointF,Min DewpointF,Max Humidity, Mean Humidity, Min Humidity, Max Sea Level PressureIn, Mean Sea Level PressureIn, Min Sea Level PressureIn, Max VisibilityMiles, Mean VisibilityMiles, Min VisibilityMiles, Max Wind SpeedMPH, Mean Wind SpeedMPH, Max Gust SpeedMPH,PrecipitationIn, CloudCover, Events, WindDirDegrees
2013-1-1,59,52,44,54,48,43,100,86,76,30.19,30.08,29.97,,,,8,4,,0.00,8,,213
2013-1-2,60,55,50,55,53,50,100,95,72,30.17,30.05,29.93,,,,9,3,,0.00,7,,43
2013-1-3,50,46,42,50,45,41,100,94,76,30.30,30.20,30.12,,,,8,3,,0.00,7,,334
2013-1-4,53,42,32,41,35,32,100,73,47,30.38,30.33,30.28,10,10,10,10,2,,0.00,1,,277
2013-1-5,53,40,26,39,30,23,93,66,41,30.43,30.36,30.31,10,10,10,8,1,,0.00,1,Rain,137
2013-1-6,50,46,41,50,42,36,100,87,66,30.30,30.21,30.13,10,10,4,10,4,,0.00,6,Rain,244
2013-1-7,53,42,32,37,35,32,100,72,44,30.43,30.35,30.25,10,10,10,14,3,17,0.00,0,,52
2013-1-8,55,44,32,45,39,32,100,79,66,30.44,30.39,30.36,10,10,10,10,5,,0.00,5,,45
2013-1-9,69,56,42,55,51,45,100,82,60,30.46,30.41,30.37,10,10,10,7,2,,0.00,0,,44
2013-1-10,73,60,46,61,55,52,100,64,50,30.48,30.43,30.36,10,8,1,12,4,18,0.00,4,Rain,89
2013-1-11,73,66,59,68,64,63,100,88,69,30.35,30.26,30.19,10,5,0,10,6,17,0.00,7,Fog,151
2013-1-12,78,68,57,64,61,59,100,77,51,30.23,30.18,30.13,10,9,2,10,6,,0.00,1,,197
2013-1-13,77,67,57,68,62,59,100,83,61,30.20,30.14,30.10,10,10,5,14,6,20,0.00,3,,189
2013-1-14,78,68,59,64,61,59,100,82,54,30.19,30.15,30.11,10,10,7,17,7,22,0.00,3,,188
2013-1-15,75,65,55,64,60,59,100,77,57,30.17,30.11,30.04,10,9,4,15,5,21,0.00,4,,179
2013-1-16,73,68,62,66,61,59,100,82,64,30.06,30.02,29.98,10,9,2,15,7,20,0.00,8,Rain,212
2013-1-17,71,56,42,70,50,41,100,91,78,30.12,29.93,29.75,10,8,2,23,7,33,0.00,8,Rain,191
2013-1-18,53,42,32,41,32,27,100,67,35,30.53,30.43,30.22,10,10,10,16,8,29,0.00,0,,31
2013-1-19,60,45,30,41,33,27,93,69,38,30.52,30.39,30.25,10,10,10,8,4,,0.00,0,,89
2013-1-20,64,50,37,39,37,34,100,69,36,30.24,30.16,30.09,10,10,10,15,6,21,0.00,0,,247
2013-1-21,62,47,32,37,34,27,100,62,30,30.12,30.08,30.03,10,10,10,16,5,23,0.00,0,,264
2013-1-22,50,42,33,27,23,21,60,49,32,30.30,30.21,30.10,10,10,10,17,8,22,0.00,0,,269
2013-1-23,53,40,26,34,26,19,80,58,40,30.40,30.30,30.18,10,10,10,16,5,24,0.00,0,,247
2013-1-24,62,48,32,43,32,12,82,55,29,30.48,30.23,30.11,10,10,7,18,11,25,0.00,1,,290
2013-1-25,37,32,28,28,19,12,75,58,44,30.50,30.33,30.17,10,10,10,8,5,,0.00,6,,68
2013-1-26,59,47,35,37,33,28,87,64,39,30.34,30.22,30.13,10,10,4,8,3,,0.00,2,,327
2013-1-27,51,40,30,32,31,28,100,69,43,30.54,30.47,30.34,10,10,10,13,6,18,0.00,3,,68
2013-1-28,60,48,37,50,40,32,100,80,63,30.48,30.41,30.32,10,8,3,8,4,,0.00,5,,74
2013-1-29,77,58,39,63,58,41,100,80,57,30.32,30.21,30.10,10,7,0,15,3,18,0.00,4,Fog-Rain,167
2013-1-30,78,64,51,68,63,50,100,85,54,30.10,29.87,29.57,10,10,7,25,14,41,0.00,7,Rain,179
2013-1-31,51,44,37,50,31,27,94,60,38,30.19,30.01,29.75,10,10,10,24,16,43,0.00,1,,260